Location: Newark
(9.4667°S, 159.8167°E)
Time: 11:28:54
(UTC+00:00)

Courier 1B Rocket - Pass Details

Date: 23 November 2019
Orbit: 920 x 1202 km, 28.2° (Epoch: 12 December)

Event Time Altitude Azimuth Distance (km) Brightness Sun altitude
Rises 18:49:18 0° 229° (SW) 3,754 7.8 -0.8°
Reaches altitude 10° 18:52:36 10° 216° (SW) 2,754 7.2 -0.1°
Maximum altitude 18:57:52 25° 163° (SSE) 1,845 7.1 1.1°
Drops below altitude 10° 19:02:56 10° 109° (ESE) 2,636 10.0 2.3°
Sets 19:06:01 0° 96° (E) 3,560 9.9 3.0°
